Location: Croydon
(51.3762°N, 0.0982°W)
Time: 16:28:25
(UTC+01:00)

VELOX 1 - Pass Details

Date: 29 April 2019
Orbit: 630 x 644 km, 98.2° (Epoch: 26 May)

Event Time Altitude Azimuth Distance (km) Brightness Sun altitude
Exits shadow 00:12:43 10° 84° (E) 2,041 ? -23.6°
Reaches altitude 10° 00:12:50 10° 82° (E) 2,016 ? -23.6°
Maximum altitude 00:14:55 13° 54° (NE) 1,804 ? -23.7°
Drops below altitude 10° 00:17:01 10° 25° (NNE) 2,023 ? -23.7°
Sets 00:20:16 0° 359° (N) 2,939 ? -23.8°
